Wind_Speed
30 30 29 29 32 33 30 29 27 32 33 35 30 27 27 24 28 24 25 30 33 34 35 34 37 34 35 35 32 29 29 28 27 27 29 27 29 31 34 34 34 34 35 36 38 37 38 39 42
29 30 29 29 32 30 29 25 30 28 32 34 25 32 22 27 30 26 29 28 30 32 39 37 34 35 37 34 32 30 29 30 28 26 27 30 32 33 32 34 36 36 37 37 36 37 38 40 42
29 30 26 28 30 29 27 24 27 29 27 31 27 30 24 21 19 16 16 19 27 41 37 37 36 39 37 36 34 31 29 29 25 25 27 28 31 32 33 35 36 39 39 37 36 34 30 31 33
30 30 27 27 27 26 26 28 23 23 24 29 31 27 24 18 18 11 27 41 41 39 41 42 41 41 40 34 32 27 25 23 22 24 27 28 30 28 29 30 29 27 29 33 28 27 25 27 30
30 28 24 27 27 24 22 27 23 22 23 29 27 16 20 16 31 37 38 40 42 42 44 49 44 42 33 29 26 25 22 23 25 26 26 28 28 28 27 26 20 20 19 22 24 25 28 32 33
27 26 23 23 25 25 23 25 23 21 22 24 22 16 16 32 37 39 43 41 43 40 44 43 44 37 28 26 26 26 24 24 24 25 27 26 25 23 24 26 24 23 21 19 18 22 26 28 32
30 28 28 25 25 27 19 29 23 21 22 20 16 12 12 22 27 36 38 40 40 45 43 44 36 29 27 24 25 23 21 22 23 25 26 27 22 20 22 22 26 25 23 22 20 20 20 19 21
34 30 31 31 27 29 23 30 23 24 22 17 14 21 22 27 19 26 29 33 38 38 36 36 32 27 22 21 19 21 22 20 19 19 12 14 13 14 17 15 16 19 19 20 21 22 20 20 19
35 33 35 33 34 31 30 33 25 25 23 16 14 22 30 25 23 22 36 38 36 32 25 22 19 15 15 14 13 9 8 9 11 15 18 13 15 14 14 13 13 16 16 17 19 19 18 17 17
38 35 38 35 36 33 36 36 29 27 22 21 16 18 30 27 29 35 35 35 24 20 23 15 12 11 9 7 7 7 10 12 14 14 16 15 17 17 16 15 16 14 13 18 17 19 19 19 21
38 38 38 35 37 33 27 30 32 29 24 26 21 18 22 24 25 31 36 28 24 18 17 9 3 5 10 8 10 10 11 11 10 15 20 16 20 16 15 15 15 14 15 17 19 19 17 20 16
39 35 36 40 38 40 34 26 28 32 30 29 24 22 22 20 21 24 29 23 18 11 10 6 8 10 10 10 10 11 11 11 12 14 17 17 19 15 13 13 15 17 18 24 21 21 20 19 18
37 40 42 40 34 30 31 28 27 38 33 35 31 28 25 23 21 19 23 26 21 11 10 13 12 11 11 15 14 18 18 16 17 17 17 18 15 17 16 17 16 13 21 26 25 24 25 23 23
38 43 40 44 38 33 33 35 28 38 34 37 38 36 31 27 28 20 17 22 14 13 11 12 15 15 16 18 17 19 22 21 23 21 19 16 16 15 19 19 22 25 30 28 30 28 28 27 24
44 42 43 47 44 40 35 30 34 37 34 44 44 31 34 33 30 26 21 17 19 15 18 20 20 20 19 21 24 23 25 26 26 25 25 24 20 19 21 24 29 31 34 37 39 36 33 33 33
42 42 42 51 39 40 39 32 39 38 32 36 45 31 40 30 29 32 29 23 15 19 24 27 28 26 25 26 28 28 27 31 35 34 33 33 31 27 32 34 35 36 38 42 43 44 42 38 39
54 46 44 46 45 44 46 42 46 40 39 34 39 37 32 33 30 36 32 28 23 19 23 28 31 31 30 31 30 33 32 32 35 37 39 40 37 38 42 42 42 42 40 41 43 46 47 47 47
56 48 50 46 46 44 43 42 54 44 37 40 40 36 38 34 37 37 33 32 31 24 20 31 34 36 35 39 40 38 38 39 40 41 44 47 47 46 46 43 46 44 43 44 46 50 52 53 53
48 50 50 51 52 49 49 47 47 46 37 38 46 39 35 34 42 42 36 35 36 32 28 29 35 36 35 38 41 41 41 42 45 47 49 52 52 50 47 47 49 45 48 50 52 54 56 56 55
54 51 51 55 62 60 52 49 46 49 41 42 43 45 44 42 43 42 38 43 42 36 34 33 35 36 37 36 38 40 42 43 45 48 52 55 57 55 51 52 48 50 53 51 52 52 58 60 63
48 50 52 52 59 56 55 48 50 48 48 43 43 44 38 35 40 47 48 42 43 39 37 37 37 35 39 39 42 41 43 45 49 50 50 49 48 49 53 52 53 57 57 57 54 56 54 61 64
65 68 67 64 61 54 57 51 51 48 49 49 42 44 42 38 44 50 49 45 43 44 45 40 37 37 43 44 45 47 47 52 54 54 52 52 53 54 56 59 60 61 59 58 59 64 67 65 66
64 73 69 72 70 66 60 55 49 49 47 49 47 44 40 37 44 45 50 46 48 47 43 43 43 44 45 46 48 51 51 54 51 51 54 56 59 59 59 60 58 60 53 57 62 61 62 65 68
57 64 64 63 64 57 53 56 46 46 49 53 51 48 43 41 42 51 52 53 52 47 45 47 51 52 52 51 50 54 54 53 51 51 52 57 61 60 62 62 64 67 74 74 75 74 79 78 72
53 60 64 63 61 53 62 62 48 48 50 51 50 46 41 40 40 42 51 54 52 50 52 53 53 49 52 50 50 49 55 55 59 54 55 59 60 63 63 65 67 71 72 73 74 85 85 89 95
66 62 61 65 63 58 60 50 50 48 49 48 51 47 44 42 48 50 57 52 54 55 51 51 52 58 50 48 50 52 55 54 56 60 61 65 68 67 69 72 75 76 80 80 84 88 92 96 96
70 65 61 69 69 63 57 52 51 53 50 49 52 49 43 46 52 55 55 53 53 56 55 52 53 54 55 54 56 54 55 57 59 61 64 64 72 74 78 81 80 81 84 86 90 95 98 101 106
76 65 67 70 66 65 60 56 56 56 53 48 46 48 46 53 56 54 52 53 57 53 53 55 55 56 61 63 63 59 59 61 64 66 70 76 77 76 78 79 82 86 86 88 94 100 108 112 119
89 86 78 76 76 72 70 59 57 63 60 50 49 46 50 52 49 56 60 55 53 53 55 59 59 59 63 67 70 70 65 67 69 73 80 83 82 83 86 87 90 92 93 97 108 115 120 129 128
97 88 83 79 77 72 75 61 60 58 58 53 50 58 62 65 65 65 61 60 61 61 60 66 69 70 69 69 71 72 69 71 77 83 87 85 86 89 90 92 93 98 102 112 117 122 127 127 123
Wind_Direction
287 281 279 285 285 286 294 301 299 295 296 304 301 296 304 279 272 274 279 270 287 286 289 288 284 290 295 296 294 289 272 268 275 279 283 279 280 285 290 289 281 278 276 273 270 268 265 264 263
288 281 283 282 279 288 298 298 293 300 300 302 297 311 295 266 270 281 283 273 275 282 284 292 292 293 294 299 293 285 276 261 267 274 277 280 285 288 290 290 285 275 274 273 272 268 265 266 266
289 284 283 281 279 291 295 289 291 300 307 311 299 319 287 286 308 274 248 280 259 283 289 292 293 291 297 299 290 287 279 273 266 275 280 287 286 286 292 290 287 283 279 271 266 265 270 268 268
291 285 280 285 288 291 291 285 286 300 306 314 315 322 316 269 277 250 253 265 283 287 293 294 293 298 298 291 293 285 274 271 274 282 286 288 284 292 296 295 299 292 287 271 266 264 255 270 268
293 284 284 284 286 285 287 286 293 300 309 312 319 324 304 275 245 261 260 278 279 286 293 290 295 295 290 285 286 282 280 279 280 283 284 288 290 293 292 295 301 298 298 287 273 265 259 266 267
290 291 282 279 283 283 296 291 297 294 301 303 322 332 308 299 276 258 266 273 277 283 291 298 296 290 288 280 285 281 283 284 282 287 289 286 286 285 288 294 297 301 303 305 297 282 274 270 270
285 284 285 275 284 285 292 292 293 297 298 297 308 312 256 216 268 266 275 277 283 288 292 289 286 282 283 286 286 280 281 283 284 291 290 297 296 292 299 302 295 295 295 300 305 303 298 291 285
285 279 280 277 279 287 289 294 295 294 295 292 303 299 258 239 263 261 286 277 281 292 283 287 281 281 290 289 288 286 289 289 291 313 310 302 314 303 301 313 305 299 292 299 303 299 294 293 294
284 280 276 280 269 277 281 291 289 288 297 294 276 302 290 270 290 254 293 292 288 289 287 289 283 292 295 303 302 312 323 319 295 293 298 294 294 303 299 303 311 299 297 296 294 298 299 298 298
280 278 276 280 291 271 270 279 282 286 294 294 270 273 287 293 282 282 290 284 282 277 271 269 272 283 289 290 286 299 310 311 302 313 321 298 313 293 301 295 285 303 305 304 302 303 295 296 298
278 272 273 278 284 282 279 279 282 286 289 298 296 271 290 282 287 287 283 287 274 266 260 263 297 272 291 296 292 304 309 314 313 336 328 308 320 300 303 306 310 294 302 324 322 326 324 318 306
271 269 270 273 279 277 283 282 280 284 292 297 301 291 281 287 283 277 281 262 240 237 255 290 294 289 289 299 286 283 312 311 332 330 348 323 317 315 314 308 301 309 307 322 324 328 327 321 314
268 262 270 272 274 281 278 279 285 280 285 294 295 304 300 285 286 274 271 240 220 226 272 273 279 282 289 279 285 293 292 302 305 312 329 334 315 323 326 312 304 288 300 311 318 313 315 320 314
272 265 267 269 272 268 268 273 280 276 281 288 288 298 299 304 292 293 275 237 234 258 234 274 278 271 283 282 280 288 294 299 301 293 301 304 314 309 313 307 304 301 298 295 298 298 301 303 302
270 266 268 271 267 261 264 270 275 280 289 284 280 290 299 306 293 289 292 282 226 262 270 251 268 269 285 292 297 294 290 297 294 298 302 296 286 287 302 306 304 294 292 292 296 293 290 306 297
267 266 270 266 267 258 259 273 271 269 272 282 280 279 297 297 288 288 287 293 281 253 267 265 271 281 284 289 290 293 291 292 292 299 302 298 295 282 285 293 302 302 290 287 292 292 289 289 301
262 259 269 270 264 264 261 264 276 274 266 279 284 285 292 296 279 291 285 288 286 275 273 265 272 280 290 292 296 290 288 291 290 291 293 293 293 290 295 287 291 295 291 291 291 292 288 285 290
249 256 264 268 264 263 269 266 277 271 272 264 273 284 289 288 284 284 284 286 286 282 278 283 277 281 289 290 295 295 292 291 292 288 288 290 292 293 295 289 291 292 290 291 291 290 290 289 288
255 260 263 258 263 268 266 272 275 269 270 275 266 267 269 282 281 283 279 284 286 287 286 287 288 289 289 289 290 292 294 294 292 288 286 285 287 288 291 291 291 289 288 287 284 284 283 285 285
262 254 258 260 263 270 266 267 271 273 268 273 269 269 275 280 278 282 277 282 284 282 287 285 284 289 290 292 291 293 297 298 295 292 288 287 286 285 286 288 284 281 283 286 288 287 286 283 280
255 258 259 259 260 266 269 268 269 276 271 268 273 269 277 272 282 271 275 285 283 278 280 280 283 285 287 289 291 295 298 299 299 294 290 288 286 286 285 278 277 277 278 280 283 285 277 280 284
248 256 261 265 261 266 269 272 270 271 275 272 271 272 271 276 265 271 272 283 281 283 285 282 283 283 288 291 293 292 294 298 295 293 288 285 286 284 283 282 284 282 281 279 279 281 279 284 284
251 254 260 262 265 266 272 271 266 268 272 276 275 275 269 272 257 270 276 273 280 286 282 278 282 289 288 285 285 288 294 300 297 293 291 292 290 286 282 280 278 271 275 284 288 289 290 289 289
257 262 265 265 264 265 270 268 265 265 266 272 274 276 278 279 265 263 273 278 280 279 276 282 287 287 285 283 286 293 297 298 298 292 289 290 286 281 280 280 289 291 290 290 290 293 299 290 287
256 262 253 258 262 268 265 267 266 268 269 270 274 276 276 277 270 263 269 268 268 274 280 284 285 289 286 284 290 289 296 300 296 292 294 283 281 282 287 290 292 293 297 295 291 296 293 293 294
254 258 260 263 264 261 263 269 264 263 266 269 270 273 276 269 264 257 260 266 270 275 278 282 286 285 282 282 286 291 295 296 295 294 293 293 295 295 292 291 295 297 298 295 294 298 297 297 295
258 268 265 262 262 264 269 269 262 259 263 264 267 270 269 262 265 264 267 271 268 274 279 283 282 277 276 285 292 296 297 295 294 294 294 293 297 298 297 297 295 297 299 298 298 296 292 290 290
259 264 264 269 269 268 268 263 259 256 260 263 266 271 264 265 266 262 264 266 268 271 272 271 271 273 284 291 293 297 295 294 293 291 291 293 295 297 298 294 293 293 294 292 292 292 294 294 293
256 266 268 265 272 269 267 262 259 259 262 262 266 267 264 264 267 267 267 270 270 269 275 282 287 289 292 292 292 296 297 293 291 295 296 294 292 293 295 294 292 292 290 293 297 296 296 296 295
255 262 265 263 274 272 261 262 261 254 255 255 255 251 254 259 266 272 279 281 282 279 280 282 289 294 293 292 292 292 295 295 296 296 295 295 294 295 295 290 290 292 292 293 299 298 295 296 294
Height
10836 10835 10836 10836 10834 10833 10834 10837 10838 10834 10832 10827 10822 10822 10824 10821 10823 10828 10828 10822 10822 10823 10824 10820 10818 10818 10819 10820 10819 10817 10817 10817 10815 10814 10814 10813 10812 10812 10811 10809 10807 10805 10804 10803 10804 10805 10806 10806 10806
10831 10831 10830 10829 10828 10829 10830 10833 10830 10828 10826 10822 10819 10815 10818 10815 10816 10821 10822 10821 10821 10819 10818 10815 10813 10814 10813 10814 10813 10811 10811 10811 10810 10809 10809 10808 10807 10806 10805 10803 10800 10798 10797 10796 10796 10797 10798 10798 10798
10826 10825 10825 10824 10824 10825 10826 10827 10826 10823 10821 10817 10812 10813 10812 10811 10813 10813 10814 10817 10815 10813 10811 10809 10809 10808 10808 10808 10807 10805 10805 10805 10804 10804 10804 10804 10803 10800 10799 10796 10794 10792 10790 10789 10788 10789 10791 10791 10791
10820 10820 10819 10818 10819 10822 10821 10820 10825 10821 10819 10814 10808 10810 10806 10810 10813 10810 10813 10811 10810 10804 10803 10804 10803 10802 10803 10801 10801 10800 10800 10800 10799 10799 10799 10798 10797 10795 10794 10791 10789 10786 10784 10782 10782 10783 10785 10786 10785
10815 10815 10814 10813 10813 10817 10818 10815 10820 10816 10815 10809 10807 10808 10803 10807 10809 10809 10805 10804 10802 10797 10798 10797 10797 10798 10797 10795 10795 10796 10795 10795 10794 10794 10794 10794 10792 10790 10788 10787 10785 10783 10780 10778 10777 10777 10778 10777 10778
10810 10811 10809 10808 10808 10810 10813 10810 10814 10813 10811 10809 10805 10806 10801 10800 10798 10800 10796 10797 10796 10792 10792 10792 10793 10793 10792 10791 10791 10792 10792 10792 10791 10790 10789 10788 10787 10785 10784 10783 10781 10780 10778 10776 10774 10773 10772 10772 10771
10805 10806 10804 10803 10803 10805 10808 10803 10810 10808 10807 10809 10803 10802 10801 10791 10802 10795 10796 10793 10788 10785 10787 10790 10790 10788 10787 10787 10787 10788 10788 10788 10786 10785 10785 10784 10783 10782 10780 10780 10778 10776 10774 10773 10772 10771 10770 10769 10767
10798 10799 10799 10799 10798 10800 10803 10798 10805 10804 10803 10807 10801 10794 10791 10796 10794 10792 10788 10784 10786 10785 10784 10784 10785 10784 10784 10784 10785 10785 10784 10783 10782 10782 10781 10780 10778 10778 10777 10776 10774 10772 10771 10770 10769 10768 10767 10766 10764
10792 10792 10791 10791 10795 10795 10797 10795 10798 10800 10798 10803 10800 10790 10784 10790 10788 10785 10784 10780 10781 10782 10780 10781 10781 10780 10781 10781 10782 10783 10781 10779 10779 10778 10777 10776 10774 10774 10772 10771 10770 10768 10767 10766 10765 10764 10763 10761 10759
10785 10785 10782 10786 10787 10788 10792 10792 10791 10792 10794 10795 10799 10794 10780 10781 10780 10779 10779 10782 10775 10776 10776 10778 10777 10777 10778 10779 10780 10779 10777 10776 10776 10775 10773 10772 10771 10769 10767 10766 10765 10764 10763 10762 10760 10759 10757 10756 10755
10777 10775 10776 10779 10780 10781 10786 10786 10783 10783 10789 10787 10792 10792 10789 10784 10782 10780 10780 10772 10774 10774 10776 10775 10773 10774 10775 10777 10776 10775 10774 10774 10773 10772 10770 10768 10767 10764 10763 10762 10760 10759 10758 10758 10756 10754 10752 10751 10750
10769 10768 10769 10771 10775 10775 10778 10780 10780 10776 10779 10783 10783 10784 10785 10782 10780 10779 10774 10773 10772 10772 10772 10771 10772 10773 10773 10774 10772 10772 10771 10770 10770 10769 10766 10764 10763 10760 10759 10757 10756 10755 10754 10753 10752 10750 10748 10747 10746
10761 10762 10763 10764 10766 10768 10768 10771 10773 10769 10772 10771 10775 10777 10776 10776 10777 10776 10775 10771 10768 10769 10768 10768 10768 10769 10769 10769 10769 10768 10767 10766 10765 10764 10763 10761 10759 10756 10754 10752 10752 10751 10750 10748 10747 10745 10743 10742 10740
10754 10755 10756 10755 10757 10760 10760 10762 10765 10760 10766 10764 10763 10766 10769 10768 10768 10770 10768 10767 10765 10763 10764 10763 10762 10764 10765 10763 10763 10762 10761 10761 10759 10758 10757 10756 10754 10752 10750 10750 10746 10745 10745 10744 10741 10740 10738 10737 10735
10743 10746 10748 10746 10747 10751 10754 10757 10754 10753 10759 10758 10755 10756 10755 10758 10758 10758 10758 10760 10764 10760 10758 10760 10758 10758 10759 10759 10756 10755 10754 10753 10752 10751 10750 10749 10749 10746 10745 10744 10744 10741 10737 10735 10734 10734 10732 10730 10728
10732 10737 10738 10734 10742 10741 10746 10748 10743 10746 10750 10751 10749 10751 10750 10750 10750 10749 10750 10752 10760 10759 10756 10752 10752 10753 10752 10751 10750 10749 10748 10747 10744 10743 10742 10741 10740 10739 10738 10736 10736 10734 10732 10729 10724 10723 10723 10722 10720
10717 10726 10731 10727 10732 10733 10737 10740 10731 10739 10741 10742 10742 10744 10745 10744 10743 10741 10743 10746 10748 10752 10749 10746 10743 10744 10744 10743 10744 10743 10741 10740 10738 10735 10734 10733 10733 10732 10730 10728 10726 10725 10722 10720 10718 10715 10713 10712 10710
10701 10717 10718 10721 10718 10724 10726 10732 10721 10730 10732 10732 10731 10737 10738 10738 10733 10734 10735 10738 10737 10742 10743 10739 10736 10737 10735 10735 10734 10734 10733 10731 10729 10727 10725 10723 10722 10720 10719 10717 10717 10714 10712 10710 10708 10705 10702 10700 10698
10699 10705 10708 10709 10706 10713 10718 10720 10716 10718 10723 10723 10722 10725 10728 10732 10721 10723 10726 10725 10727 10727 10731 10731 10727 10727 10727 10727 10724 10723 10723 10723 10721 10718 10715 10713 10710 10709 10709 10707 10705 10704 10700 10698 10696 10694 10691 10688 10687
10688 10693 10697 10697 10694 10698 10707 10711 10711 10706 10714 10713 10712 10715 10721 10724 10716 10709 10713 10714 10717 10719 10719 10720 10718 10718 10717 10718 10716 10714 10713 10711 10710 10708 10704 10702 10699 10697 10697 10696 10694 10691 10687 10685 10683 10682 10679 10677 10673
10679 10682 10680 10684 10680 10686 10693 10703 10701 10698 10698 10705 10702 10704 10714 10717 10712 10700 10703 10704 10704 10708 10710 10708 10708 10711 10707 10707 10704 10704 10702 10701 10698 10695 10693 10690 10687 10685 10683 10682 10679 10677 10675 10672 10670 10669 10667 10665 10661
10666 10661 10662 10668 10670 10679 10681 10691 10691 10690 10685 10689 10695 10694 10701 10704 10702 10692 10694 10696 10695 10696 10698 10698 10700 10701 10696 10695 10693 10692 10691 10689 10686 10682 10680 10677 10674 10671 10669 10666 10664 10662 10660 10659 10656 10654 10652 10650 10647
10657 10643 10650 10653 10657 10664 10673 10676 10681 10677 10679 10674 10679 10683 10691 10695 10691 10685 10680 10685 10684 10685 10687 10685 10686 10689 10687 10685 10682 10679 10678 10677 10674 10669 10666 10664 10661 10657 10655 10654 10651 10647 10644 10641 10639 10636 10633 10629 10627
10632 10632 10636 10636 10643 10658 10662 10657 10670 10669 10666 10663 10667 10670 10676 10682 10681 10677 10674 10670 10669 10674 10675 10674 10673 10673 10674 10673 10670 10667 10665 10663 10660 10657 10654 10651 10648 10647 10644 10642 10638 10633 10629 10624 10620 10618 10614 10609 10604
10620 10621 10624 10628 10631 10648 10645 10646 10661 10656 10655 10654 10655 10661 10665 10667 10667 10666 10665 10663 10660 10661 10664 10662 10660 10661 10659 10658 10657 10654 10650 10647 10645 10643 10641 10639 10636 10634 10632 10627 10620 10615 10611 10607 10603 10599 10593 10588 10583
10599 10602 10616 10616 10620 10628 10626 10647 10649 10645 10643 10644 10641 10648 10653 10653 10649 10649 10650 10655 10651 10650 10652 10651 10650 10646 10646 10643 10641 10639 10637 10634 10631 10629 10626 10623 10619 10614 10610 10607 10605 10598 10592 10588 10583 10578 10570 10564 10558
10589 10593 10598 10598 10605 10614 10623 10630 10633 10632 10633 10631 10628 10634 10639 10638 10635 10635 10640 10642 10640 10639 10640 10639 10639 10636 10633 10629 10626 10624 10621 10619 10616 10612 10610 10606 10602 10598 10591 10587 10582 10579 10576 10569 10562 10555 10548 10540 10530
10570 10576 10579 10582 10596 10601 10612 10614 10618 10618 10620 10620 10622 10622 10623 10623 10622 10623 10624 10625 10626 10625 10623 10624 10624 10622 10620 10616 10613 10609 10606 10603 10599 10596 10593 10589 10585 10578 10574 10568 10562 10556 10551 10545 10538 10530 10522 10513 10502
10552 10559 10563 10568 10580 10588 10594 10601 10604 10604 10608 10609 10610 10612 10612 10609 10610 10613 10613 10612 10613 10612 10610 10608 10607 10606 10604 10601 10598 10594 10591 10587 10583 10579 10574 10570 10566 10561 10557 10550 10541 10534 10526 10518 10510 10500 10489 10479 10467
10531 10544 10549 10554 10564 10569 10577 10589 10587 10592 10591 10597 10600 10598 10598 10598 10596 10598 10599 10598 10596 10595 10595 10592 10589 10588 10585 10583 10581 10578 10573 10569 10565 10560 10556 10550 10544 10538 10533 10528 10520 10513 10504 10495 10484 10472 10457 10445 10431